Tracking 19651 objects as of 23-Apr-2019
HD Live streaming from Space Station
objects crossing your sky now

SL-3 DEB

Track SL-3 DEB now!
10-day predictions


NORAD ID: 24893
Int'l Code: 1988-032C
Perigee: 557.4 km
Apogee: 610.3 km
Inclination: 97.5 °
Period: 96.2 minutes
Semi major axis: 6954 km
RCS: 0.0103 m2 (small)
Launch date: April 20, 1988
Source: Commonwealth of Independent States (former USSR) (CIS)
Launch site: TYURATAM MISSILE AND SPACE COMPLEX (TTMTR)

Note: This is SATELLITE DEBRIS
aabbcc
Your satellite tracking list
Your tracking list is empty




NASA's NSSDC Master Catalog

Two Line Element Set (TLE):
1 24893U 88032C   19112.79005714 -.00000449 +00000-0 -33688-4 0  9995
2 24893 097.4816 138.5061 0038023 022.7347 033.8377 14.96816855437354
Source of the keplerian elements: AFSPC